Flag for U.S.A. Weather past 2 weeks in Fargo, North Dakota, U.S.A.

Now
11 °F

Sunny.


Feels Like: -8 °F
Forecast: 4 / 20 °F
Wind: 21 mph from Northeast

Location: Hector International Airport

Current Time: Jan 31, 2015 at 12:05:33 PM

Latest Report: Jan 31, 2015 at 10:53 AM


Visibility: 10 mi

Pressure: 30.43 "Hg

Humidity: 59%

Dew point: -1 °F

Location of FargoLocation

Historic Weather in Fargo — Graph

°F

Fargo temperature yesterday

Maximum temperature yesterday: 33 °F (at 3:53 PM)
Minimum temperature yesterday: 8 °F (at 1:01 AM)
Average temperature yesterday: 21 °F

Past Weeks' High & Low Weather Summary

 TemperatureHumidityPressure
High46 °F (Jan 23, 2:53 PM)96% (Jan 27, 6:53 AM)30.66 "Hg (Jan 27, 6:53 AM)
Low7 °F (Jan 29, 11:53 PM)59% (Jan 29, 3:53 PM)29.43 "Hg (Jan 17, 6:02 AM)
Average28 °F80%30.00 "Hg
* Reported Jan 16 10:53 AM — Jan 31 10:53 AM, Fargo, Weather by CustomWeather, © 2014

Note: Actual official high and low records may vary slightly from our data, if they occured in-between our weather recording intervals... More about our weather records

Advertising

Fargo weather history for previous 24 hours

 ConditionsComfort  
Time TempWeatherWind HumidityBarometerVisibility
10:53 AM
Jan 31
11 °FSunny.21 mph59%30.43 "Hg10 mi
9:53 AM10 °FSunny.21 mph61%30.41 "Hg10 mi
8:53 AM9 °FSunny.21 mph66%30.40 "Hg10 mi
7:53 AM10 °FOvercast.18 mph69%30.38 "Hg10 mi
6:53 AM13 °FOvercast.22 mph70%30.37 "Hg10 mi
5:53 AM15 °FOvercast.20 mph70%30.34 "Hg10 mi
5:04 AM17 °FMostly cloudy.23 mph76%30.29 "Hg10 mi
4:53 AM17 °FOvercast.18 mph76%30.33 "Hg10 mi
3:53 AM18 °FOvercast.15 mph77%30.29 "Hg10 mi
2:53 AM19 °FOvercast.15 mph81%30.27 "Hg10 mi
1:53 AM21 °FOvercast.18 mph78%30.25 "Hg10 mi
12:53 AM24 °FMostly cloudy.20 mph75%30.24 "Hg9 mi
11:53 PM
Jan 30
26 °FOvercast.21 mph77%30.23 "Hg9 mi
10:53 PM27 °FOvercast.17 mph81%30.22 "Hg7 mi
9:53 PM27 °FPassing clouds.10 mph81%30.21 "Hg8 mi
8:53 PM28 °FClear.13 mph78%30.19 "Hg10 mi
7:53 PM23 °FClear.3 mph88%30.18 "Hg8 mi
6:53 PM28 °FClear.7 mph81%30.17 "Hg10 mi
5:53 PM30 °FClear.8 mph79%30.16 "Hg10 mi
4:53 PM32 °FSunny.9 mph73%30.18 "Hg10 mi
3:53 PM33 °FSunny.15 mph70%30.18 "Hg10 mi
2:53 PM32 °FPassing clouds.16 mph66%30.20 "Hg10 mi
1:53 PM30 °FPassing clouds.15 mph64%30.21 "Hg10 mi
12:53 PM26 °FPassing clouds.22 mph69%30.25 "Hg10 mi
Weather by CustomWeather, © 2014

See weather overviewHow to use our weather pages